Theta_e
328 319 313 309 296 291 288 292 294 296 300 319 324 323 324 326 327 318 346 356 360 360 361 361 362 363 362 362 361 362 362 362 363 363 363 362 362 362 362 362 362 362 359 356 356 357 358 359 359
324 316 309 303 292 287 288 293 293 295 301 308 316 322 326 323 332 336 337 355 360 360 360 361 363 363 361 360 361 361 361 362 362 362 362 362 362 362 362 362 362 361 357 355 355 356 358 359 357
311 310 303 297 290 287 289 294 294 297 300 301 311 320 322 324 333 335 354 359 361 358 358 360 362 361 361 360 359 360 361 361 361 362 362 362 362 361 361 362 362 361 357 355 355 355 357 358 355
306 303 299 294 291 291 291 295 295 297 306 308 310 315 325 333 333 343 359 360 358 358 358 363 362 361 361 359 359 360 360 361 361 361 362 362 362 362 361 361 360 360 359 356 355 356 356 355 354
299 297 293 290 289 292 294 296 296 296 296 301 315 318 323 332 350 356 356 357 356 356 359 361 363 362 361 359 359 359 360 360 360 361 361 361 361 361 361 361 361 361 361 358 356 356 354 353 352
295 294 289 286 287 292 295 295 296 295 297 300 311 314 317 317 342 350 354 352 357 356 358 360 362 362 361 360 360 359 359 359 359 360 360 360 360 360 361 361 362 361 360 359 356 355 352 350 349
292 289 286 286 289 291 295 297 296 295 297 300 299 305 304 307 329 352 352 353 354 356 357 357 359 361 361 361 360 359 359 358 359 358 358 359 359 360 360 361 361 361 360 358 357 354 352 349 348
292 290 285 285 288 288 295 297 295 297 298 303 303 297 296 303 316 352 353 352 350 351 353 355 358 358 357 357 360 360 359 359 358 359 359 358 358 359 359 358 359 360 359 358 356 353 351 349 347
291 286 284 289 289 292 295 294 298 301 299 301 302 301 304 308 326 343 344 348 348 352 349 354 354 356 357 356 358 359 358 358 359 358 359 356 354 356 357 357 358 359 358 357 355 353 351 348 347
291 287 289 291 292 295 294 293 296 297 298 298 300 303 306 307 306 321 339 343 346 347 349 351 353 353 354 357 355 355 355 355 354 354 354 354 353 354 355 356 357 358 358 356 355 352 350 348 338
293 290 292 294 295 294 294 295 296 296 294 297 298 301 303 306 305 303 304 327 342 346 349 351 353 353 353 353 355 355 355 355 354 352 352 352 349 349 352 352 355 355 356 351 352 348 345 340 337
294 295 295 296 296 294 295 296 296 295 296 300 300 301 302 302 302 303 303 304 304 334 349 350 351 353 352 352 353 352 353 353 352 352 352 348 346 346 347 348 350 350 350 347 344 342 340 338 336
293 294 296 297 297 295 297 294 295 295 299 300 301 302 301 301 301 302 304 304 304 304 316 347 350 351 352 350 352 352 351 351 351 351 349 347 344 343 346 346 348 348 346 345 341 339 337 335 333
294 295 296 296 296 294 293 294 294 297 299 300 300 300 299 300 301 301 302 302 305 305 306 319 348 351 351 350 350 350 350 350 349 349 348 347 345 344 344 344 345 346 345 344 341 338 335 333 332
295 293 294 294 294 292 294 293 293 297 298 298 299 299 300 301 300 300 301 301 302 304 306 311 343 350 349 350 349 350 349 349 349 349 348 348 346 343 343 344 344 345 344 343 341 337 335 334 334
292 290 287 294 294 293 293 287 295 296 296 297 298 299 299 299 300 301 302 302 304 303 304 307 326 347 347 348 349 349 349 349 350 350 348 347 347 344 342 342 343 344 343 342 339 336 335 334 334
288 284 286 290 293 292 291 289 294 296 296 296 296 296 298 300 303 306 307 305 305 304 304 305 308 337 346 346 349 349 349 349 349 350 349 348 348 344 342 342 343 344 342 341 340 336 336 334 333
285 284 285 286 291 290 289 289 292 296 295 295 295 299 301 302 304 307 309 311 309 306 305 304 305 317 344 345 344 345 342 348 346 348 348 348 348 346 342 342 343 343 342 340 338 338 334 334 333
289 287 286 288 293 289 289 289 291 294 294 294 294 300 301 302 306 307 310 312 311 311 309 307 305 307 335 344 342 341 341 343 344 346 348 348 348 347 343 342 341 342 341 340 339 337 334 330 335
290 287 286 290 292 290 289 290 292 293 293 292 299 300 301 301 304 308 309 311 311 311 312 313 306 306 317 341 343 338 340 341 344 344 346 346 349 348 345 343 341 341 342 340 337 335 332 333 338
288 286 286 287 290 290 288 285 288 292 294 298 299 300 301 302 303 305 307 308 309 310 311 313 313 307 310 328 339 335 337 337 338 339 340 342 345 349 347 344 343 341 341 340 337 335 334 330 333
285 291 290 289 285 281 287 278 284 289 292 296 298 299 301 302 303 304 305 305 306 308 310 310 314 315 314 316 333 336 336 334 337 339 341 343 344 344 347 346 344 342 340 341 338 336 336 334 331
289 292 290 288 283 282 282 279 282 288 290 293 296 301 302 302 303 303 304 305 306 306 306 307 309 311 315 317 323 333 334 335 333 337 337 341 342 344 344 344 344 342 340 340 339 335 334 334 335
294 289 286 283 281 275 280 280 280 285 290 294 298 302 303 301 302 303 303 304 304 305 305 304 306 307 312 317 319 322 329 330 328 330 333 335 338 341 343 343 343 343 341 340 337 336 334 333 337
290 283 274 274 273 275 282 282 283 289 293 297 298 300 301 300 300 301 302 301 303 302 302 303 304 304 308 312 318 321 323 328 329 329 332 332 334 337 340 342 342 342 342 340 337 336 335 334 334
286 283 275 270 272 276 285 279 285 293 295 299 300 300 299 297 297 299 300 300 301 301 301 302 302 303 306 309 314 320 324 328 328 328 330 331 333 337 339 340 342 343 340 340 338 337 334 333 330
286 280 285 277 278 280 280 284 290 293 295 298 298 298 296 296 297 297 300 300 300 301 301 301 301 303 305 308 312 318 323 328 330 331 333 335 335 337 339 340 341 341 341 339 335 331 324 323 322
288 290 279 277 271 275 279 280 283 288 290 292 293 294 296 296 296 297 299 298 301 301 301 301 301 301 304 308 310 318 320 325 332 334 333 331 333 334 337 339 340 339 340 336 333 332 323 318 317
286 282 284 282 285 276 276 278 288 288 291 290 293 295 294 295 295 296 297 299 301 300 300 300 301 301 304 307 309 315 320 328 330 331 330 331 332 332 334 337 339 337 335 334 334 327 321 317 315
289 287 285 276 278 282 281 282 295 293 292 293 294 298 294 295 296 296 297 300 299 299 299 299 301 302 304 305 307 312 319 323 326 328 329 329 330 331 334 336 337 336 335 329 324 321 318 315 313
Wind_Speed
5 4 1 3 5 6 3 6 3 10 11 4 4 4 9 4 2 2 1 5 9 9 9 13 15 12 14 15 14 14 15 15 16 16 17 17 17 17 16 16 15 14 14 12 12 13 13 13 12
4 2 3 2 6 5 3 5 9 5 5 8 4 3 7 3 1 2 3 5 9 8 5 7 14 13 14 14 13 13 14 15 15 15 15 16 15 15 15 15 14 13 14 13 12 12 12 11 11
1 3 4 5 4 4 1 6 8 8 8 4 3 4 3 2 3 2 4 8 10 7 5 6 14 14 14 15 14 12 12 14 15 15 15 15 15 14 14 13 13 13 14 13 12 12 9 9 10
3 5 5 6 5 1 1 7 6 10 9 9 3 5 3 2 3 3 6 8 8 7 6 8 10 12 12 15 15 15 13 13 14 15 15 15 15 14 12 11 12 13 12 12 12 10 9 8 8
5 4 5 5 2 2 4 5 6 8 5 7 4 2 3 5 5 4 6 7 8 7 6 7 11 10 11 12 14 15 15 14 13 14 15 15 15 13 12 11 11 11 11 10 10 8 8 7 6
5 4 6 3 3 4 6 5 6 4 6 8 8 3 2 6 7 6 5 2 6 6 5 6 12 12 11 11 11 12 13 14 14 13 14 14 14 13 11 10 10 10 10 9 9 8 7 6 6
7 5 4 4 4 2 3 7 4 4 5 8 3 3 2 5 5 5 5 5 5 3 3 5 6 9 12 12 12 11 11 12 13 12 11 12 12 12 11 10 9 8 8 8 8 7 7 6 5
6 6 4 1 1 2 4 7 2 5 3 6 3 4 4 4 4 5 6 5 5 3 1 2 5 4 5 7 13 12 12 13 12 12 11 10 10 11 11 10 9 8 7 7 6 6 6 5 5
3 7 2 3 1 4 5 5 3 4 4 5 3 0 3 4 3 3 2 1 1 1 3 4 7 7 7 5 8 11 15 13 12 12 11 8 4 5 8 8 9 9 8 7 6 6 5 5 4
7 5 5 2 1 2 3 1 4 2 5 3 5 4 3 4 3 3 4 5 4 5 5 5 7 8 7 6 5 5 6 7 6 6 6 5 7 6 6 8 11 9 8 7 6 5 4 3 1
1 3 1 1 3 2 2 3 3 4 4 3 8 11 9 1 3 6 7 6 7 4 3 8 9 8 7 7 5 4 3 4 4 6 6 6 7 6 6 3 4 3 7 3 3 2 2 2 2
4 3 2 4 1 2 2 2 4 1 1 6 4 6 6 8 8 6 6 8 8 6 10 7 9 11 11 5 7 7 6 4 5 6 8 8 6 7 8 6 7 4 2 4 3 2 2 2 3
4 3 4 5 8 3 3 2 4 4 4 6 7 7 8 8 8 8 5 7 9 9 9 9 9 11 10 9 6 7 8 7 8 7 10 9 9 8 6 8 7 6 3 3 3 3 3 2 2
3 4 9 5 6 2 1 1 2 4 5 8 8 10 7 5 8 8 10 9 4 9 11 5 10 12 10 10 11 9 7 8 7 7 8 11 10 9 8 8 8 6 4 3 3 3 3 3 2
3 6 6 2 3 4 3 6 4 2 4 7 9 8 9 9 5 7 9 10 9 8 8 10 10 10 11 14 10 7 8 8 8 8 10 11 11 10 8 7 6 6 5 5 3 2 2 3 2
6 6 6 8 6 1 4 8 8 5 7 9 9 8 8 9 8 9 9 9 11 9 9 9 8 10 12 10 10 9 8 8 8 8 7 12 11 10 7 6 7 6 5 5 4 3 3 4 3
7 2 4 9 6 4 1 8 7 6 5 9 9 8 8 9 8 8 9 9 13 11 10 10 8 10 13 14 10 10 10 8 7 7 7 11 11 11 8 6 6 6 5 5 5 3 4 3 3
5 3 4 6 7 2 9 11 9 8 6 9 7 6 6 7 8 9 11 12 10 11 10 9 7 9 11 9 6 3 2 6 5 7 8 10 10 12 10 7 6 6 5 5 5 5 3 2 2
3 3 5 6 7 4 7 9 9 11 9 10 5 5 7 7 7 8 9 10 11 10 11 10 7 9 6 9 7 6 9 9 8 9 14 13 12 12 11 8 7 6 7 8 8 4 5 3 4
4 3 4 7 6 4 10 22 11 9 8 2 3 5 7 7 9 11 12 13 12 11 9 13 9 8 7 7 8 4 5 7 9 7 7 8 10 12 12 11 10 10 8 8 8 7 3 3 6
2 3 3 7 5 5 7 8 4 2 2 3 3 3 4 5 7 9 12 11 13 14 14 13 13 7 5 8 3 3 3 3 3 3 5 10 13 13 14 13 10 11 11 9 9 10 9 5 5
3 3 4 7 4 8 3 9 4 2 7 4 5 5 5 5 5 6 10 13 12 13 10 10 11 11 7 7 5 11 10 10 8 10 11 10 13 14 12 13 13 12 10 11 10 9 8 5 6
7 3 5 5 3 4 4 1 8 2 5 7 6 5 5 2 2 6 9 9 9 9 9 10 10 10 11 7 6 6 9 6 5 6 9 10 9 11 12 11 12 11 9 12 10 10 10 8 6
3 4 4 4 3 2 3 4 6 4 5 3 2 6 4 6 8 7 5 8 11 12 13 12 12 12 11 9 6 8 8 8 4 4 6 6 6 7 9 9 10 10 10 11 10 12 12 11 8
8 7 6 8 6 6 2 4 11 8 7 6 7 6 1 5 7 8 9 10 13 17 15 16 17 16 12 11 8 7 10 9 10 9 6 5 6 4 9 8 9 8 10 9 8 9 11 12 10
1 6 6 5 3 6 5 8 8 5 5 4 5 6 6 3 5 6 8 10 12 14 16 17 17 19 16 13 11 9 9 7 7 5 4 3 2 4 8 9 9 11 10 10 7 1 4 5 3
2 2 2 2 1 4 4 7 9 6 6 5 8 6 8 7 6 8 10 7 10 15 17 14 16 15 16 15 12 9 8 8 7 7 6 5 6 5 7 8 9 11 12 11 11 7 10 11 6
5 7 2 3 3 6 6 6 9 7 10 9 8 8 9 5 8 7 9 11 11 15 13 13 13 13 14 13 12 10 9 9 9 9 11 10 6 7 7 9 10 13 14 13 9 7 7 14 10
2 2 2 3 4 4 5 6 7 8 11 10 8 8 7 7 8 9 11 10 13 12 10 13 13 13 13 10 13 13 10 10 9 7 7 9 7 7 7 9 10 11 11 12 10 11 12 13 13
6 8 8 6 6 6 4 14 11 11 10 6 8 14 3 7 9 8 10 13 14 12 11 12 12 11 11 12 11 12 10 7 7 5 6 5 6 4 7 8 9 9 12 11 14 14 13 16 15
Wind_Direction
327 317 170 60 63 65 46 333 267 320 350 354 309 136 128 86 95 206 6 123 114 128 140 151 146 139 136 133 132 127 124 124 126 130 135 140 143 144 146 144 144 147 143 137 132 132 136 131 128
326 334 35 79 77 63 306 296 321 248 267 318 307 33 48 47 66 330 37 113 120 127 124 142 151 143 138 134 134 134 133 132 131 134 137 139 142 145 148 148 147 146 144 142 139 136 140 134 129
313 25 73 79 87 100 342 308 284 284 282 247 101 59 94 20 3 353 54 100 114 116 118 155 157 149 144 142 142 141 140 139 139 139 140 142 145 148 150 152 148 148 148 146 145 143 141 137 133
40 10 41 76 94 111 116 301 306 343 348 18 21 39 35 310 353 4 109 107 103 112 122 151 159 157 150 148 150 148 151 148 149 149 148 148 149 151 154 154 151 150 151 152 150 143 139 136 129
35 50 62 81 3 310 286 294 320 13 5 337 350 24 44 348 5 122 128 119 134 139 143 148 155 163 162 157 157 158 157 156 158 159 156 155 155 155 157 157 156 153 151 153 145 140 136 138 131
44 89 58 76 319 301 296 320 331 27 355 353 41 47 19 341 23 346 16 104 146 142 140 151 170 169 168 167 169 167 164 161 162 165 164 161 160 159 161 161 163 154 155 154 151 150 146 146 132
105 75 137 149 344 33 294 330 11 340 12 351 278 63 345 16 355 59 48 45 20 35 141 158 170 181 180 171 170 171 171 169 167 167 168 169 166 165 167 170 169 165 163 165 159 158 154 150 141
99 89 91 106 27 234 13 340 315 359 349 294 359 26 332 320 12 84 72 66 53 29 351 198 188 185 173 175 181 176 176 177 173 172 168 172 174 174 176 176 178 176 181 183 169 175 170 161 153
118 63 111 120 95 304 315 20 323 309 346 344 357 127 302 348 38 67 86 88 93 196 218 216 217 204 197 189 189 183 183 183 180 178 174 168 165 181 190 190 190 189 195 194 193 193 186 175 162
72 85 201 187 72 328 279 10 301 15 331 333 324 303 254 294 338 209 228 225 218 218 220 196 217 217 209 204 194 178 185 187 179 174 172 161 192 197 194 202 203 198 203 205 207 204 209 154 139
65 121 148 129 153 281 276 314 299 315 3 13 296 304 318 304 320 311 298 255 246 278 221 198 203 214 205 208 181 186 188 179 182 174 173 173 195 208 210 206 208 197 207 202 207 224 201 155 170
82 32 120 269 250 259 275 331 321 107 300 267 298 295 328 348 339 313 258 266 277 240 236 220 200 204 209 186 194 195 190 180 194 194 189 196 196 202 210 209 212 201 190 200 203 218 217 174 195
59 319 283 280 275 248 175 207 229 184 269 325 2 32 356 341 321 304 277 240 260 263 256 232 197 206 206 190 193 195 195 190 185 188 209 204 202 202 199 211 206 211 184 196 202 219 238 215 197
314 289 303 326 307 276 234 289 107 225 336 351 8 339 328 299 315 320 327 311 243 244 262 252 225 216 190 203 195 198 194 195 187 185 199 208 207 204 198 202 204 210 195 190 198 208 227 245 195
339 353 344 359 324 301 290 340 309 247 331 338 335 319 317 317 311 288 283 290 290 281 253 249 220 205 212 200 202 199 195 194 195 193 190 203 210 209 194 186 187 203 191 185 191 195 205 255 236
29 50 15 293 323 316 62 276 280 300 353 317 305 300 312 310 308 300 293 290 290 285 271 257 229 210 205 217 204 195 190 192 204 200 192 199 209 204 200 197 199 191 178 182 186 187 220 241 239
6 275 307 314 325 291 184 270 266 321 302 290 295 329 323 316 314 316 314 295 290 286 282 276 239 219 210 210 210 203 193 192 194 197 199 200 200 191 200 208 206 182 182 189 189 189 194 212 218
279 317 264 260 292 346 290 261 292 292 289 270 298 325 328 323 308 312 316 326 309 300 293 269 259 228 220 207 204 193 178 192 178 194 195 191 202 193 188 204 200 178 183 186 175 188 187 191 172
232 203 242 262 273 305 256 268 259 269 288 272 333 327 327 336 307 317 326 335 337 335 328 314 286 244 200 205 201 213 204 206 204 200 199 193 193 195 193 201 197 192 195 197 193 169 178 186 147
200 225 272 289 284 309 290 286 294 229 246 305 214 310 338 337 341 344 345 346 352 326 324 336 309 284 223 209 200 195 189 215 210 205 206 191 200 196 199 195 195 195 207 192 183 178 172 159 178
281 177 263 244 294 257 289 285 236 298 257 281 309 323 324 301 328 341 341 345 343 344 339 335 336 323 256 243 210 120 103 82 136 185 180 204 198 198 195 194 197 191 199 207 191 191 184 176 189
321 194 246 279 328 300 94 286 312 1 297 257 300 313 319 356 353 343 349 345 344 331 326 324 343 357 316 257 235 213 212 203 200 197 207 203 198 205 200 194 194 192 195 209 199 188 198 152 176
233 326 269 286 266 5 326 43 268 295 265 272 310 298 277 314 49 15 337 328 330 331 333 329 347 350 347 324 256 247 235 237 282 192 196 198 197 194 202 195 194 196 193 203 207 184 193 196 167
324 332 14 50 72 17 249 106 273 258 213 280 286 265 248 4 349 1 0 324 341 337 341 341 354 345 341 346 300 250 251 240 206 272 186 193 189 196 196 201 200 204 200 204 201 210 188 194 181
44 42 336 348 2 233 353 328 242 256 225 233 261 275 325 12 351 337 343 335 337 335 332 340 344 339 336 336 322 276 246 243 231 213 217 206 170 178 205 196 202 206 206 198 204 197 200 182 190
216 144 154 268 244 272 286 243 255 246 261 240 267 237 211 298 307 306 311 319 317 318 335 337 336 332 331 329 317 305 264 231 223 219 185 155 312 166 187 195 205 202 185 170 147 163 199 141 94
184 176 192 144 259 284 245 289 304 275 265 273 267 239 254 264 286 293 296 278 291 330 338 332 326 320 317 318 315 300 286 241 212 185 167 171 173 201 208 191 202 215 188 166 150 151 142 86 82
162 161 57 350 266 253 252 252 239 286 286 298 293 280 271 277 293 298 314 310 323 332 327 326 316 302 302 305 311 298 297 252 221 189 192 184 175 183 190 198 206 213 190 174 159 128 126 118 119
195 197 130 181 199 225 290 246 216 236 277 271 269 280 277 289 300 306 303 292 310 318 321 316 312 303 302 309 314 307 302 274 230 215 221 169 161 184 201 199 197 213 188 179 167 158 143 125 127
192 205 159 149 221 231 245 269 246 265 262 258 284 316 315 296 289 293 288 297 312 312 308 302 307 307 300 301 306 311 293 285 249 215 211 163 161 153 219 216 184 184 179 160 151 151 140 138 137